Probability
0 0 0 0 0 0 0 0 0 0 0 0 0 0 0 0 0 0 0 0 0 0 6 13 19 19 29 32 32 26 19 16 16 16 16 16 16 16 16 13 13 16 13 13 13 13 13 10 6
0 0 0 0 0 0 0 0 0 0 0 0 0 0 0 0 0 0 0 0 0 0 10 13 19 19 26 29 29 19 16 16 16 16 16 16 16 16 13 13 13 10 13 13 13 13 10 6 6
0 0 0 0 0 0 0 0 0 0 0 0 0 0 0 0 0 0 0 0 0 0 6 10 19 19 23 26 19 23 13 16 13 16 16 16 16 13 13 13 10 10 10 13 13 13 6 6 6
0 0 0 0 0 0 0 0 0 0 0 0 0 0 0 0 0 0 0 0 0 3 6 10 19 19 19 19 26 23 13 10 10 16 16 16 13 13 13 13 10 10 10 10 6 6 3 6 6
0 0 0 0 0 0 0 0 0 0 0 0 0 0 0 0 0 0 0 3 0 3 6 6 23 23 23 19 19 16 16 13 13 13 16 13 10 13 13 10 10 10 6 6 3 3 3 3 3
0 0 0 0 0 0 0 0 0 0 0 0 0 0 0 0 0 0 0 0 6 3 3 6 23 26 23 19 16 13 13 13 13 10 10 13 13 10 13 10 6 6 3 3 3 3 3 3 3
0 0 0 0 0 0 0 0 0 0 0 0 0 0 0 0 0 0 0 3 3 3 3 3 3 10 16 13 13 13 13 10 10 10 10 10 16 10 10 10 6 6 3 0 0 0 0 0 0
0 0 0 0 0 0 0 0 0 0 0 0 0 0 0 0 0 0 0 3 3 3 3 3 3 3 6 6 10 10 10 10 10 10 6 6 6 6 3 3 3 3 3 0 0 0 0 0 0
0 0 0 0 0 0 0 0 0 0 0 0 0 0 0 0 0 0 0 3 3 3 3 3 3 3 3 3 6 6 3 6 3 3 3 0 0 0 0 0 0 0 0 0 0 0 0 0 0
0 0 0 0 0 0 0 0 0 0 0 0 0 0 0 0 0 0 3 3 3 3 3 3 3 3 3 3 3 0 0 0 0 3 0 0 0 0 0 0 0 0 0 0 0 0 0 0 0
0 0 0 0 0 0 0 0 0 0 0 0 0 0 0 0 0 0 3 3 3 3 3 0 0 3 3 3 0 0 0 0 0 0 0 0 0 0 0 0 0 0 0 0 0 0 0 0 0
0 0 0 0 0 0 0 0 0 0 0 0 0 0 0 0 0 0 0 3 3 0 0 0 0 0 3 3 0 0 0 0 0 0 0 0 0 0 0 0 0 0 0 0 0 0 0 0 0
0 0 0 0 0 0 0 0 0 0 0 0 0 0 0 0 0 0 0 0 0 0 0 0 0 0 0 3 0 0 0 0 0 0 0 0 0 0 0 0 0 0 0 0 0 0 0 0 0
0 0 0 0 0 0 0 0 0 0 0 0 0 0 0 0 0 0 0 0 0 0 0 0 0 0 0 0 0 0 0 0 0 0 0 0 0 0 0 0 0 0 0 0 0 0 0 0 0
0 0 0 0 0 0 0 0 0 0 0 0 0 0 0 0 0 0 0 0 0 0 0 0 0 0 0 0 0 0 0 0 0 0 0 0 0 0 0 0 0 0 0 0 0 0 0 0 0
0 0 0 0 0 0 0 0 0 0 0 0 0 0 0 0 0 0 0 0 0 0 0 0 0 0 0 0 0 0 0 0 0 0 0 0 0 0 0 0 0 0 0 0 0 0 0 0 0
0 0 0 0 0 0 0 0 0 0 0 0 0 0 0 0 0 0 0 0 0 0 0 0 0 0 0 0 0 0 0 0 0 0 0 0 0 0 0 0 0 0 0 0 0 0 0 0 0
0 0 0 0 0 0 0 0 0 0 0 0 0 0 0 0 0 0 0 0 0 0 0 0 0 0 0 0 0 0 0 0 0 0 0 0 0 0 0 0 0 0 0 0 0 0 0 0 0
0 0 0 0 0 0 0 0 0 0 0 0 0 0 0 0 0 0 0 0 0 0 0 0 0 0 0 0 0 0 0 0 0 0 0 0 0 0 0 0 0 0 0 0 0 0 0 0 0
0 0 0 0 0 0 0 0 0 0 0 0 0 0 0 0 0 0 0 0 0 0 0 0 0 0 0 0 0 0 0 0 0 0 0 0 0 0 0 0 0 0 0 0 0 0 0 0 0
0 0 0 0 0 0 0 0 0 0 0 0 0 0 0 0 0 0 0 0 0 0 0 0 0 0 0 0 0 0 0 0 0 0 0 0 0 0 0 0 0 0 0 0 0 0 0 0 0
0 0 0 0 0 0 0 0 0 0 0 0 0 0 0 0 0 0 0 0 0 0 0 0 0 0 0 0 0 0 0 0 0 0 0 0 0 0 0 0 0 0 0 0 0 0 0 0 0
0 0 0 0 0 0 0 0 0 0 0 0 0 0 0 0 0 0 0 0 0 0 0 0 0 0 0 0 0 0 0 0 0 0 0 0 0 0 0 0 0 0 0 0 0 0 0 0 0
0 0 0 0 0 0 0 0 0 0 0 0 0 0 0 0 0 0 0 0 0 0 0 0 0 0 0 0 0 0 0 0 0 0 0 0 0 0 0 0 0 0 0 0 0 0 0 0 0
0 0 0 0 0 0 0 0 0 0 0 0 0 0 0 0 0 0 0 0 0 0 0 0 0 0 0 0 0 0 0 0 0 0 0 0 0 0 0 0 0 0 0 0 0 0 0 0 0
0 0 0 0 0 0 0 0 0 0 0 0 0 0 0 0 0 0 0 0 0 0 0 0 0 0 0 0 0 0 0 0 0 0 0 0 0 0 0 0 0 0 0 0 0 0 0 0 0
0 0 0 0 0 0 0 0 0 0 0 0 0 0 0 0 0 0 0 0 0 0 0 0 0 0 0 0 0 0 0 0 0 0 0 0 0 0 0 0 0 0 0 0 0 0 0 0 0
0 0 0 0 0 0 0 0 0 0 0 0 0 0 0 0 0 0 0 0 0 0 0 0 0 0 0 0 0 0 0 0 0 0 0 0 0 0 0 0 0 0 0 0 0 0 0 0 0
0 0 0 0 0 0 0 0 0 0 0 0 0 0 0 0 0 0 0 0 0 0 0 0 0 0 0 0 0 0 0 0 0 0 0 0 0 0 0 0 0 0 0 0 0 0 0 0 0
0 0 0 0 0 0 0 0 0 0 0 0 0 0 0 0 0 0 0 0 0 0 0 0 0 0 0 0 0 0 0 0 0 0 0 0 0 0 0 0 0 0 0 0 0 0 0 0 0
Height
5834 5835 5836 5837 5839 5839 5841 5845 5846 5847 5848 5848 5849 5850 5851 5852 5854 5856 5856 5856 5857 5857 5858 5858 5859 5859 5860 5860 5861 5861 5862 5862 5862 5862 5862 5863 5863 5863 5862 5862 5862 5862 5862 5861 5861 5861 5860 5860 5859
5829 5830 5831 5832 5832 5834 5838 5840 5841 5842 5843 5844 5845 5846 5847 5848 5849 5851 5851 5852 5853 5854 5855 5855 5856 5856 5857 5858 5858 5859 5859 5860 5860 5860 5860 5861 5861 5861 5861 5860 5860 5860 5860 5859 5859 5859 5858 5858 5857
5823 5824 5825 5826 5826 5830 5833 5836 5836 5837 5838 5839 5840 5841 5843 5844 5845 5846 5847 5848 5849 5850 5851 5852 5853 5853 5854 5855 5855 5856 5857 5857 5858 5858 5858 5858 5859 5859 5858 5858 5858 5858 5858 5857 5857 5857 5856 5855 5855
5817 5818 5819 5820 5822 5825 5828 5830 5830 5831 5833 5834 5835 5836 5838 5840 5841 5842 5843 5844 5845 5846 5847 5848 5849 5850 5851 5852 5852 5853 5854 5854 5855 5855 5856 5856 5856 5856 5856 5856 5856 5855 5855 5855 5855 5854 5854 5853 5852
5810 5811 5812 5813 5816 5820 5821 5823 5824 5825 5827 5829 5829 5831 5832 5834 5836 5837 5838 5839 5840 5842 5843 5844 5845 5846 5847 5848 5849 5850 5850 5851 5851 5852 5852 5853 5853 5853 5853 5853 5853 5853 5852 5852 5852 5851 5851 5850 5850
5803 5804 5805 5806 5810 5813 5815 5816 5817 5818 5821 5822 5823 5825 5827 5828 5830 5832 5833 5834 5836 5837 5838 5840 5841 5842 5843 5844 5845 5846 5847 5847 5848 5848 5849 5849 5849 5849 5849 5850 5850 5849 5849 5849 5848 5848 5848 5847 5846
5797 5797 5798 5800 5803 5806 5808 5809 5810 5812 5814 5816 5817 5818 5821 5823 5825 5826 5828 5829 5831 5832 5833 5835 5836 5837 5839 5840 5841 5842 5842 5843 5844 5844 5845 5845 5845 5845 5845 5846 5846 5845 5845 5845 5845 5844 5844 5843 5843
5789 5790 5790 5792 5794 5798 5801 5801 5803 5805 5807 5809 5810 5812 5814 5817 5818 5820 5822 5823 5825 5827 5828 5830 5831 5832 5833 5835 5836 5837 5838 5838 5839 5839 5840 5840 5841 5841 5841 5841 5841 5841 5841 5841 5841 5840 5840 5839 5839
5781 5783 5783 5785 5787 5791 5793 5794 5795 5797 5800 5802 5804 5806 5808 5810 5811 5813 5815 5817 5819 5821 5822 5824 5825 5826 5828 5829 5830 5831 5832 5833 5834 5834 5835 5835 5836 5836 5836 5837 5837 5836 5836 5836 5836 5836 5835 5835 5834
5774 5774 5777 5779 5780 5782 5784 5785 5788 5789 5792 5794 5796 5798 5800 5802 5804 5806 5808 5810 5812 5814 5816 5817 5819 5820 5821 5822 5824 5825 5826 5827 5828 5828 5829 5830 5830 5831 5831 5831 5831 5831 5831 5831 5831 5831 5831 5830 5830
5766 5767 5769 5770 5771 5774 5776 5777 5779 5781 5784 5787 5789 5791 5793 5794 5797 5799 5801 5803 5805 5806 5808 5810 5812 5813 5814 5816 5817 5818 5819 5820 5821 5822 5822 5823 5824 5824 5825 5825 5825 5825 5826 5826 5825 5825 5825 5825 5824
5760 5760 5760 5762 5763 5765 5768 5770 5771 5773 5777 5779 5781 5783 5785 5787 5789 5791 5793 5795 5797 5798 5800 5802 5804 5806 5807 5808 5810 5810 5812 5812 5813 5814 5815 5816 5817 5817 5818 5818 5819 5819 5819 5820 5819 5819 5819 5819 5819
5752 5753 5753 5755 5756 5758 5760 5762 5763 5765 5768 5770 5772 5774 5777 5779 5781 5783 5785 5787 5789 5790 5792 5794 5796 5798 5799 5800 5801 5802 5803 5804 5805 5806 5807 5808 5809 5810 5811 5811 5812 5812 5813 5813 5813 5813 5813 5813 5812
5745 5746 5747 5748 5749 5751 5752 5754 5755 5758 5759 5761 5763 5766 5768 5770 5772 5774 5776 5778 5781 5782 5784 5785 5787 5788 5790 5791 5793 5794 5795 5795 5796 5797 5798 5799 5800 5802 5803 5804 5804 5805 5805 5805 5806 5806 5806 5806 5806
5739 5740 5741 5741 5742 5743 5744 5746 5748 5749 5750 5753 5755 5757 5759 5760 5762 5764 5767 5769 5771 5773 5774 5775 5777 5779 5781 5782 5783 5784 5785 5785 5786 5787 5789 5790 5791 5793 5794 5796 5797 5797 5798 5798 5798 5798 5798 5799 5798
5733 5734 5735 5736 5735 5736 5737 5740 5742 5741 5742 5744 5746 5748 5749 5751 5752 5754 5756 5759 5761 5763 5764 5765 5767 5768 5770 5772 5773 5774 5775 5775 5776 5778 5779 5781 5782 5784 5785 5787 5788 5789 5789 5790 5790 5790 5791 5791 5791
5728 5728 5728 5729 5729 5729 5729 5732 5735 5733 5734 5736 5737 5738 5740 5742 5743 5745 5747 5748 5750 5752 5754 5755 5756 5758 5759 5761 5762 5763 5764 5765 5766 5768 5769 5771 5772 5774 5776 5778 5779 5780 5780 5781 5781 5782 5782 5782 5782
5723 5722 5722 5722 5722 5722 5722 5724 5726 5726 5726 5727 5728 5729 5731 5733 5734 5736 5737 5738 5739 5741 5742 5744 5745 5747 5748 5749 5751 5752 5753 5755 5756 5758 5759 5761 5762 5764 5766 5768 5769 5770 5771 5772 5772 5773 5773 5773 5773
5716 5716 5716 5716 5715 5714 5715 5717 5718 5718 5717 5718 5719 5720 5722 5724 5725 5726 5726 5727 5728 5729 5731 5732 5734 5735 5736 5738 5739 5741 5742 5744 5746 5747 5749 5750 5752 5754 5756 5758 5759 5760 5761 5762 5763 5763 5763 5763 5763
5710 5710 5710 5710 5708 5707 5707 5709 5710 5709 5709 5709 5710 5710 5712 5714 5715 5715 5716 5716 5717 5718 5719 5721 5722 5723 5724 5725 5727 5729 5731 5733 5735 5737 5739 5740 5742 5744 5745 5747 5748 5750 5751 5752 5752 5753 5753 5753 5753
5704 5703 5702 5702 5701 5700 5699 5701 5702 5702 5701 5701 5701 5702 5703 5704 5705 5705 5705 5706 5707 5708 5709 5709 5710 5711 5712 5712 5714 5716 5719 5721 5723 5726 5728 5729 5731 5732 5734 5736 5737 5738 5740 5741 5742 5742 5743 5743 5743
5697 5696 5695 5694 5693 5693 5692 5690 5695 5693 5692 5692 5692 5693 5694 5695 5695 5696 5696 5696 5697 5697 5697 5698 5698 5699 5700 5700 5701 5703 5706 5709 5712 5714 5716 5718 5719 5721 5723 5724 5726 5727 5729 5730 5731 5731 5732 5732 5732
5690 5689 5688 5686 5685 5684 5684 5682 5686 5684 5684 5684 5684 5684 5685 5685 5686 5686 5686 5686 5687 5687 5686 5687 5687 5687 5688 5688 5689 5691 5694 5697 5700 5702 5704 5706 5708 5710 5711 5713 5714 5716 5717 5718 5719 5719 5720 5720 5721
5682 5682 5680 5678 5677 5677 5677 5675 5676 5676 5676 5675 5675 5675 5675 5675 5676 5675 5675 5675 5675 5675 5675 5675 5675 5676 5676 5676 5677 5679 5682 5685 5687 5689 5691 5693 5695 5697 5699 5701 5702 5703 5705 5706 5706 5707 5708 5708 5709
5675 5674 5671 5669 5668 5669 5668 5666 5669 5668 5666 5665 5665 5665 5665 5665 5665 5665 5664 5664 5664 5664 5664 5664 5664 5665 5665 5665 5666 5668 5669 5671 5673 5676 5678 5680 5682 5684 5686 5688 5689 5691 5692 5693 5693 5694 5695 5696 5696
5666 5665 5664 5661 5659 5659 5659 5658 5661 5660 5657 5656 5656 5655 5655 5655 5654 5654 5653 5653 5653 5653 5653 5653 5653 5653 5653 5653 5654 5655 5656 5658 5660 5662 5664 5666 5669 5671 5672 5674 5676 5677 5678 5679 5680 5681 5682 5683 5683
5658 5657 5656 5653 5650 5649 5650 5650 5652 5651 5649 5648 5647 5646 5645 5645 5644 5643 5642 5641 5641 5641 5641 5641 5641 5641 5641 5640 5641 5642 5642 5644 5646 5648 5649 5652 5654 5657 5659 5660 5661 5663 5664 5665 5666 5667 5668 5669 5670
5651 5649 5648 5645 5642 5640 5641 5641 5642 5641 5640 5639 5638 5636 5635 5634 5633 5632 5632 5631 5630 5630 5629 5629 5628 5628 5628 5628 5628 5629 5629 5631 5632 5634 5636 5638 5641 5642 5644 5646 5647 5648 5650 5651 5652 5653 5654 5655 5656
5643 5641 5639 5637 5635 5632 5630 5635 5634 5633 5631 5629 5628 5625 5624 5623 5622 5621 5621 5619 5618 5618 5617 5617 5616 5616 5616 5616 5616 5616 5617 5618 5619 5620 5622 5624 5626 5628 5629 5631 5632 5634 5635 5636 5637 5638 5639 5640 5641
5634 5633 5631 5629 5627 5624 5621 5626 5626 5624 5621 5619 5617 5615 5614 5612 5611 5610 5609 5608 5607 5606 5605 5604 5604 5604 5603 5603 5603 5603 5604 5604 5606 5607 5608 5610 5611 5613 5615 5616 5617 5618 5620 5621 5622 5623 5624 5625 5626
Wind_Speed
23 24 24 25 25 25 23 20 20 20 20 20 19 19 19 19 19 19 18 17 16 16 15 15 15 15 14 13 13 13 12 12 12 11 11 11 11 11 11 10 10 10 10 10 10 10 10 10 10
24 25 26 26 27 26 23 21 22 22 21 21 21 21 20 20 20 20 19 18 18 17 17 17 16 16 15 15 14 14 14 13 13 13 13 12 12 12 12 12 11 11 11 11 11 11 11 11 11
26 27 28 28 28 26 23 23 23 23 23 23 23 23 22 21 21 21 21 20 19 19 18 18 18 17 17 16 15 15 15 15 14 14 14 14 13 13 13 13 13 13 13 13 13 12 12 12 12
27 28 29 30 29 26 25 25 25 25 25 25 25 25 24 23 22 23 22 22 21 20 19 19 19 18 18 17 17 16 16 16 16 15 15 15 15 15 15 15 14 14 14 14 14 14 14 14 13
28 29 30 30 28 27 26 27 27 27 27 26 27 26 26 25 24 24 24 23 22 21 21 21 20 19 19 19 18 18 18 18 17 17 17 17 17 17 17 16 16 16 16 15 16 15 15 15 15
28 29 30 30 29 27 27 29 30 29 28 28 28 28 27 26 26 25 25 25 24 23 22 22 22 21 21 20 20 20 20 19 19 19 19 19 18 18 18 18 17 17 17 17 17 17 17 17 17
28 29 29 30 29 28 28 30 31 30 30 29 29 29 28 28 27 26 26 26 25 24 24 24 24 23 22 22 22 22 22 22 21 21 20 20 20 20 19 19 19 19 19 19 19 19 19 18 18
27 29 29 30 30 29 28 30 31 32 31 30 31 31 30 28 28 27 27 27 26 26 25 26 25 25 24 24 24 24 24 24 23 23 22 22 22 21 21 21 21 21 21 21 21 21 20 20 20
27 29 29 29 29 29 28 29 31 32 32 31 31 32 31 30 29 29 28 28 28 27 27 27 27 27 26 26 26 26 26 26 25 25 25 24 24 24 23 22 22 22 22 22 22 22 22 22 22
27 28 28 29 29 29 28 30 31 32 32 32 32 32 32 31 31 30 30 30 30 29 29 29 29 29 29 28 28 28 28 28 28 27 27 27 26 26 25 25 24 24 24 24 24 24 24 24 24
27 27 28 28 29 29 29 30 31 32 31 32 33 32 32 32 32 32 31 31 31 31 31 30 31 31 31 30 30 30 30 30 30 30 30 29 29 28 28 27 27 26 26 26 26 26 25 25 25
26 26 28 28 29 30 29 29 31 32 32 32 33 33 33 32 34 34 33 33 33 33 32 32 32 33 33 32 32 32 32 33 33 33 32 32 31 30 30 30 29 28 28 28 28 28 27 27 26
25 25 27 28 28 30 30 30 31 32 33 33 34 34 34 34 35 35 35 34 34 35 35 34 34 34 34 34 34 35 35 35 35 35 34 34 33 33 32 32 31 31 30 30 30 30 29 28 28
26 26 26 28 29 30 31 30 31 32 33 34 35 35 36 35 35 37 36 35 35 35 36 36 37 36 36 36 37 37 37 37 37 37 37 36 36 35 34 34 33 33 33 32 32 32 31 30 30
25 26 26 28 29 30 31 31 32 33 34 35 36 36 37 37 36 37 37 37 37 37 37 38 39 39 39 39 39 39 39 38 39 39 38 38 38 37 36 36 35 35 35 35 35 33 33 32 32
26 26 26 28 29 30 32 31 31 34 34 35 36 36 37 38 37 38 38 38 38 39 39 39 40 41 41 41 40 40 39 39 40 40 40 40 39 39 38 37 37 37 37 37 37 36 35 35 34
25 27 26 27 29 31 31 31 31 34 34 34 36 37 36 37 38 38 39 40 40 40 40 40 41 42 43 43 42 41 41 40 41 41 41 41 41 41 40 39 39 39 39 39 38 38 38 37 37
26 26 26 27 29 31 31 30 30 33 33 34 35 37 37 37 38 38 39 40 40 40 41 41 41 43 44 44 43 43 43 42 42 42 42 42 43 42 42 41 41 41 41 40 40 39 40 39 39
27 27 27 27 29 31 32 31 30 32 33 34 35 37 37 37 38 39 39 40 41 41 41 42 42 43 45 45 44 44 44 44 43 42 43 43 43 43 43 43 43 42 42 42 41 41 40 40 41
29 28 27 28 30 33 32 32 31 32 34 34 35 36 37 37 38 38 40 40 41 41 42 42 43 44 45 45 45 45 45 45 44 44 44 44 45 45 45 45 44 44 44 43 42 42 41 41 42
29 29 28 29 30 32 33 32 30 31 33 34 34 35 37 37 38 38 39 40 40 40 41 41 41 43 44 44 45 46 46 47 46 45 45 45 46 46 46 46 45 45 45 45 44 44 43 42 43
30 30 31 31 32 32 33 34 30 31 32 33 33 34 35 36 37 38 39 40 40 40 40 40 41 42 42 44 45 45 46 47 47 46 46 47 47 47 47 47 46 46 46 46 46 45 45 44 44
31 31 32 32 34 35 32 35 31 30 31 33 34 34 35 36 37 38 40 40 41 41 41 41 41 41 41 42 44 45 46 47 48 48 48 48 48 48 48 48 47 47 47 47 47 46 46 46 46
31 32 33 33 35 36 33 34 31 29 30 32 35 35 36 37 37 38 39 40 40 41 42 42 41 41 42 43 43 44 45 47 48 49 50 49 49 49 50 49 49 48 48 48 49 48 48 47 47
30 31 33 34 35 35 33 34 31 29 31 32 33 35 35 36 37 38 39 40 40 41 42 42 42 42 42 43 44 44 46 48 48 49 50 51 50 51 51 51 50 49 49 49 50 50 49 49 49
30 31 32 34 35 35 33 34 31 30 31 32 33 34 35 36 37 38 39 40 41 41 42 43 44 43 44 45 45 46 46 47 48 49 49 50 50 50 50 51 52 51 51 51 51 51 51 51 50
31 31 32 34 36 36 35 33 31 30 30 31 33 34 36 37 38 38 39 40 41 42 42 42 44 45 45 46 46 46 46 47 48 49 49 50 50 51 51 52 52 52 52 52 52 52 52 51 51
31 32 32 33 36 37 36 34 31 30 30 32 33 34 35 37 38 39 39 39 41 41 41 42 44 44 45 45 46 47 48 49 49 50 49 50 51 51 52 52 53 54 54 54 54 53 52 52 52
31 31 33 34 35 36 37 34 32 32 32 33 34 35 36 38 39 40 40 41 41 41 42 43 43 43 44 45 46 47 48 50 51 51 51 51 52 53 52 53 53 54 55 55 55 55 54 54 53
32 32 33 35 36 37 38 35 31 33 33 35 37 37 38 39 39 40 41 41 41 42 42 42 43 43 43 45 46 47 48 49 50 51 51 52 53 53 53 54 54 54 55 55 56 55 55 55 54
Wind_Direction
254 252 251 251 251 251 251 250 248 245 245 246 247 247 247 247 248 250 250 248 247 248 248 249 250 252 254 257 258 259 259 261 263 266 266 266 266 267 269 270 269 266 266 267 271 274 278 282 285
255 252 251 251 251 252 251 249 248 245 245 246 247 248 248 248 250 251 251 249 247 247 247 249 250 250 252 254 254 254 255 257 260 263 265 264 264 265 267 267 269 268 267 268 270 274 278 282 284
255 253 251 251 252 254 254 249 248 245 244 245 247 248 248 249 250 250 250 249 248 247 248 248 250 251 252 253 253 252 253 255 258 261 263 262 263 264 266 267 268 268 268 268 270 272 276 279 281
256 254 253 253 254 254 253 250 248 246 244 245 245 247 249 250 249 250 250 249 248 248 248 248 250 252 253 253 252 251 253 255 257 259 261 261 262 264 265 266 268 267 268 268 270 272 275 276 279
256 254 254 254 254 252 250 249 248 246 246 245 245 246 248 248 249 249 250 250 249 247 247 248 249 251 252 253 252 252 252 254 256 258 259 260 262 263 264 266 266 266 266 267 269 271 274 276 277
256 256 255 256 254 251 250 248 247 246 245 244 246 248 248 248 249 249 249 249 250 248 246 248 248 249 252 252 252 252 253 253 255 257 258 259 260 262 263 264 265 264 265 266 268 270 273 274 276
257 257 257 256 254 250 248 247 246 246 245 244 247 249 249 250 250 250 250 249 249 248 247 247 248 249 251 252 253 253 254 256 257 258 259 259 259 261 262 263 264 263 265 266 268 271 272 273 275
258 257 257 255 254 251 249 247 246 245 244 245 247 249 249 250 251 250 250 250 250 249 248 249 250 250 251 252 253 254 255 257 258 259 260 259 259 260 261 262 262 263 264 265 267 270 272 272 273
258 257 258 257 256 252 251 248 246 246 245 245 247 249 250 251 251 251 250 250 250 251 250 249 250 252 253 254 254 255 256 257 258 259 260 260 259 259 260 261 262 262 263 264 266 268 271 272 272
258 258 258 257 255 251 250 249 247 245 245 245 247 250 251 252 252 251 251 250 250 250 251 251 250 250 252 254 255 256 256 257 258 259 260 260 260 259 259 260 262 262 263 264 266 267 269 271 271
260 259 259 256 254 251 250 249 247 247 245 246 248 250 252 253 251 251 252 252 251 252 251 251 251 251 251 252 254 255 256 257 258 258 259 259 260 259 259 259 261 263 264 264 266 267 268 269 270
261 260 258 255 253 252 252 251 248 249 247 246 248 250 251 252 252 252 253 252 252 253 253 252 252 251 251 252 253 255 256 256 257 258 259 259 259 259 258 258 260 262 263 264 266 267 266 267 269
258 259 256 254 253 253 252 252 251 250 249 247 249 251 253 253 253 253 253 253 252 253 254 254 252 252 253 253 254 254 255 256 257 258 258 258 257 257 258 258 259 261 263 264 265 266 266 267 269
259 258 258 255 256 255 255 255 252 251 249 248 250 252 253 254 254 254 253 252 253 254 255 255 254 253 253 254 254 255 256 256 257 257 257 256 255 255 256 258 259 261 262 263 264 266 266 267 269
262 262 261 260 260 258 257 255 253 252 250 249 251 253 253 253 254 254 253 252 253 255 256 256 256 255 254 254 255 255 256 256 256 255 255 255 254 255 256 257 259 260 261 263 264 266 266 267 269
264 267 265 263 262 258 257 255 254 254 253 252 252 253 253 253 253 253 253 253 254 255 257 257 256 256 256 255 255 255 256 256 255 255 254 254 254 254 255 256 259 260 261 262 264 265 265 266 268
269 270 269 266 262 259 258 257 255 257 255 255 253 252 253 254 254 255 255 256 256 257 257 257 257 257 257 256 255 255 254 254 254 254 253 254 255 255 255 255 257 259 260 261 263 264 264 265 267
272 274 273 269 264 262 261 260 259 259 258 258 257 256 256 257 257 257 257 257 257 258 258 257 257 257 257 256 255 255 254 253 253 253 253 253 254 254 255 255 256 257 259 261 263 264 265 265 266
272 276 276 272 267 266 264 263 262 262 261 260 261 260 258 258 258 258 258 258 258 258 258 258 257 257 256 256 255 255 254 253 253 253 253 253 253 253 255 255 256 257 259 260 262 264 264 264 266
276 278 277 273 270 270 268 267 266 264 264 263 262 260 258 259 259 259 259 259 259 260 260 259 259 258 257 256 255 254 253 252 251 252 253 253 253 254 255 255 256 257 258 259 260 263 264 264 266
278 278 279 276 274 273 272 271 268 266 264 262 262 261 260 260 260 259 260 260 260 261 261 262 261 260 258 256 254 252 252 251 250 251 253 253 253 253 255 255 256 257 257 259 259 262 263 265 266
279 277 279 276 275 276 276 276 271 269 264 262 261 261 261 261 261 261 261 261 261 261 261 263 263 261 259 257 254 252 251 251 251 251 252 252 253 253 254 254 255 256 257 258 260 261 262 265 266
278 277 278 276 275 277 277 277 275 272 267 264 264 264 263 263 263 263 263 263 262 263 264 264 264 262 260 258 255 252 252 252 252 252 253 253 253 254 254 254 256 257 257 258 259 260 262 264 266
278 278 277 277 276 275 276 277 277 275 271 267 266 266 266 265 265 264 264 264 263 264 265 265 263 262 260 258 256 254 254 254 254 254 255 254 254 254 254 254 256 258 258 258 259 259 261 263 265
278 278 278 277 277 277 278 277 278 277 274 271 270 269 268 268 267 266 266 265 265 265 265 264 263 263 262 261 258 256 255 255 254 255 255 255 254 254 255 255 256 257 258 258 259 259 261 262 264
276 276 278 279 279 279 278 278 278 278 276 274 273 273 271 270 269 267 268 267 266 266 265 265 264 265 264 262 260 256 256 256 255 255 255 255 254 254 254 255 255 256 257 258 258 259 261 262 263
276 276 277 278 279 280 280 281 278 279 277 276 276 274 273 272 272 270 269 269 267 265 265 265 265 265 264 263 260 257 256 257 255 254 255 255 254 254 254 255 256 256 257 257 259 260 261 262 263
275 276 277 278 281 282 282 282 283 281 280 278 278 277 276 275 274 273 273 272 268 267 267 266 266 264 263 262 261 259 257 256 255 254 255 256 254 254 255 256 257 257 257 257 259 260 261 262 263
274 274 275 276 279 282 284 284 284 284 283 280 279 279 278 276 275 274 274 272 269 269 267 266 265 264 264 262 261 260 259 259 257 255 255 255 255 255 256 257 258 258 258 258 259 260 261 262 263
273 274 274 275 277 279 281 283 285 285 283 281 280 280 279 278 276 276 276 274 272 270 268 267 265 264 265 264 263 261 261 260 258 257 256 256 255 256 257 257 258 259 259 260 260 261 262 262 263